APRIZESAT 5 (37792 NORAD) Tracking and Keplerian Element Data

This shows tracking and keplerian element data for the satellite.

Feedback or suggestion? Click here.




ElementValue
Catalog37792
NameAPRIZESAT 5
Epoch Orbit39053
Epoch Day323.20729577
Epoch Year2018
RAAN129.1378
Inclination98.4012
Eccentricity0.005796
Argument of Perigee196.3026
Mean Anonmoly163.632
Mean Motion14.75276955
Decay Rate7.6E-07
L11 37792U 11044E 18323.20729577 .00000076 00000-0 19461-4 0 9992
L22 37792 98.4012 129.1378 0057960 196.3026 163.6320 14.75276955390531

Live tracking and technical data element details for APRIZESAT 5 (NORAD 37792). APRIZESAT 5 can be tracked NOW for your location showing map with azimuth and elevation plus other details from your city location.

Track the satellite on the map from your city or location and see movement details for azimuth, elevation, latitude, longitude, range, height, and movement on the map or in text.







IsCatalogInMostPopularTable: catalog: 37792, numindb: 57
Update: records affected: 1



GetName: 37792 APRIZESAT 5

Hit Count: updated at: Tue, 20 Nov 2018 00:05:24 GMT